Temp
73 71 71 71 70 71 67 66 64 62 62 62 62 61 59 58 58 57 57 56 55 54
71 70 70 70 68 67 67 66 62 61 60 60 60 60 58 57 57 57 56 55 55 53
69 70 68 67 65 65 65 63 60 59 59 59 59 58 58 57 57 56 55 55 54 53
67 68 67 64 64 63 61 60 59 59 58 58 58 58 57 57 57 56 55 54 54 53
67 65 65 63 62 62 60 59 59 60 60 60 59 58 57 57 57 55 54 54 53 52
64 64 62 62 63 62 60 59 60 59 57 57 56 56 57 58 56 56 55 55 52 51
62 63 63 63 62 61 60 58 57 55 54 53 51 52 54 57 56 59 58 55 52 50
62 64 64 62 61 61 59 57 56 54 52 50 49 49 47 51 54 55 52 52 53 51
63 63 62 61 60 59 56 53 51 48 47 45 50 46 49 50 52 53 52 51 50 51
63 62 61 60 58 55 52 51 48 46 46 43 43 46 47 50 51 52 49 47 46 50
62 60 60 58 56 55 53 50 47 45 44 46 47 47 49 51 50 48 46 45 45 43
61 59 58 56 55 54 51 50 48 47 45 45 45 46 46 48 48 46 45 46 46 46
60 58 56 55 53 53 51 50 50 47 45 48 44 44 44 46 46 43 46 46 47 48
59 57 56 55 55 53 51 48 47 46 44 44 44 44 44 44 44 42 45 45 44 46
MSLP
1005.36 1007.13 1008.17 1008.30 1010.03 1011.09 1013.34 1014.15 1014.78 1015.08 1015.39 1015.65 1015.92 1016.06 1016.13 1016.48 1016.56 1016.50 1016.65 1016.96 1017.10 1017.09
1006.90 1007.59 1008.70 1009.07 1010.48 1011.63 1013.35 1014.47 1015.35 1015.92 1016.10 1016.27 1016.20 1016.27 1016.63 1016.78 1017.00 1016.64 1016.94 1017.40 1017.32 1017.72
1006.83 1007.66 1008.71 1009.60 1011.01 1012.37 1013.79 1014.67 1015.77 1016.46 1016.52 1016.82 1016.78 1016.73 1016.79 1017.01 1017.23 1016.99 1017.47 1017.86 1018.08 1018.20
1007.19 1008.09 1009.11 1010.64 1011.56 1012.18 1014.01 1014.91 1015.97 1017.00 1017.23 1017.29 1017.02 1016.86 1017.08 1017.22 1017.43 1017.63 1018.18 1018.26 1018.32 1018.59
1007.82 1009.14 1009.94 1011.36 1012.07 1012.67 1014.68 1014.99 1016.84 1017.51 1017.35 1017.29 1017.17 1017.18 1017.30 1017.70 1017.96 1018.23 1018.34 1018.44 1018.70 1018.99
1008.48 1009.40 1010.35 1011.69 1012.55 1014.70 1014.98 1015.88 1017.20 1017.62 1017.71 1017.81 1017.74 1017.80 1018.01 1018.04 1018.16 1018.21 1018.50 1018.71 1019.17 1019.41
1008.82 1009.60 1010.80 1012.37 1014.02 1014.72 1015.79 1016.73 1018.02 1018.26 1018.38 1018.44 1018.46 1018.63 1018.45 1018.41 1018.41 1018.69 1019.12 1019.36 1019.64 1019.84
1009.20 1010.73 1011.97 1013.51 1014.07 1015.22 1016.44 1017.94 1018.39 1018.67 1018.89 1019.06 1019.27 1019.37 1019.16 1019.09 1019.13 1019.30 1019.55 1019.72 1019.94 1020.10
1010.05 1011.52 1012.85 1013.62 1014.77 1015.89 1017.56 1018.30 1019.04 1019.53 1019.38 1019.76 1019.97 1019.83 1019.58 1019.64 1019.46 1019.59 1019.93 1020.34 1020.43 1020.18
1011.30 1011.57 1012.87 1014.54 1016.03 1017.20 1017.72 1018.66 1019.60 1019.81 1020.02 1020.53 1020.60 1020.01 1019.54 1019.75 1019.88 1020.18 1020.54 1020.78 1020.71 1020.73
1011.67 1011.76 1013.76 1015.76 1016.98 1017.61 1018.05 1019.02 1019.82 1020.37 1020.82 1021.28 1021.30 1020.44 1020.26 1020.37 1020.44 1020.83 1021.14 1021.01 1020.95 1021.02
1011.90 1013.65 1015.51 1016.81 1017.34 1017.58 1018.00 1019.36 1020.11 1020.96 1021.69 1022.08 1021.59 1021.33 1021.21 1020.93 1020.99 1021.35 1021.52 1021.32 1021.19 1021.08
1014.46 1015.63 1016.12 1016.81 1016.86 1017.95 1018.63 1019.58 1020.63 1022.02 1022.63 1022.42 1022.38 1022.43 1021.96 1021.59 1021.51 1021.88 1021.86 1021.64 1021.42 1021.31
1015.79 1016.24 1016.56 1016.80 1017.29 1017.98 1019.09 1020.47 1022.07 1022.78 1023.05 1022.97 1023.20 1022.88 1022.35 1022.10 1022.13 1022.42 1022.31 1022.12 1021.93 1021.85
Wind_Speed
16 9 9 14 12 11 8 8 8 7 6 7 6 6 6 4 3 6 6 8 6 4
13 11 13 16 14 12 12 9 7 6 6 6 6 7 6 5 5 6 6 6 7 5
14 17 16 16 15 15 13 11 8 6 6 6 6 6 6 6 5 8 5 5 7 5
16 17 16 15 15 17 13 10 8 5 5 5 6 7 7 8 7 8 7 5 6 7
18 17 18 16 17 16 11 9 7 6 6 6 7 7 8 7 7 7 6 5 7 7
18 19 20 18 17 11 10 9 7 6 8 9 9 8 7 8 6 6 7 7 8 9
19 20 19 17 13 12 10 13 10 9 10 10 10 8 8 6 7 9 10 10 9 8
21 19 20 15 16 16 15 12 12 12 11 10 9 7 7 7 6 8 8 8 6 8
22 20 19 17 16 16 14 13 12 11 11 9 7 10 10 6 4 7 9 10 9 8
20 20 19 18 17 15 15 14 12 11 11 10 7 11 10 9 7 11 10 8 7 7
20 21 19 17 15 15 14 14 12 11 9 10 10 16 16 13 9 9 7 6 6 5
20 20 17 16 15 14 15 13 14 11 11 12 13 19 16 10 8 7 6 5 6 6
17 17 16 15 16 15 14 13 11 10 8 15 12 14 15 10 6 7 4 5 7 10
15 16 15 16 14 15 15 14 12 12 9 11 11 10 15 13 7 4 4 4 5 6
Wind_Direction
159 141 152 131 121 110 105 105 93 87 92 94 95 89 83 80 81 65 74 57 43 42
147 122 127 111 109 110 108 102 90 85 91 87 93 102 98 84 71 71 69 58 49 42
115 120 118 110 115 108 104 106 99 98 92 95 94 103 87 74 66 65 49 57 57 35
122 121 113 115 117 116 108 111 106 124 133 123 96 85 84 74 69 67 61 63 61 41
121 124 114 114 112 100 125 103 128 145 112 96 90 82 82 84 77 80 64 64 67 50
124 115 111 111 103 128 114 113 106 82 74 67 53 54 78 92 85 73 51 42 68 51
118 114 111 114 121 105 93 89 86 77 74 65 58 45 37 53 77 65 63 66 71 62
113 113 114 118 105 101 94 95 86 79 69 60 54 36 28 32 61 82 71 56 77 59
117 117 118 105 101 100 99 89 82 72 67 53 48 18 40 47 66 87 75 58 37 35
123 111 102 103 103 106 102 96 87 74 68 55 28 15 27 56 52 81 74 68 52 38
118 104 102 109 114 111 106 99 89 77 64 60 36 37 43 61 74 81 74 75 69 47
104 109 118 120 116 104 97 99 90 80 71 62 44 36 38 47 53 78 86 62 33 37
116 122 120 116 107 103 98 94 91 87 74 64 54 36 40 45 44 46 55 27 16 13
119 119 116 113 109 107 104 99 96 88 68 60 45 33 41 41 48 45 29 22 7 10